Location: Ahstedt
(52.2048°N, 10.1060°E)
Time: 22:23:48
(UTC+00:00)

Cosmos 841 Rocket - Pass Details

Date: 18 January 2026
Orbit: 743 x 766 km, 74.0° (Epoch: 7 February)

Event Time Altitude Azimuth Distance (km) Brightness Sun altitude
Exits shadow 06:14:04 - 334° (NNW) 2,871 6.0 -9.6°
Reaches altitude 10° 06:15:34 10° 333° (NNW) 2,285 5.5 -9.4°
Maximum altitude 06:20:45 83° 247° (WSW) 761 3.5 -8.7°
Drops below altitude 10° 06:25:52 10° 160° (SSE) 2,257 6.6 -8.0°
Sets 06:28:12 0° 160° (SSE) 3,174 7.4 -7.6°
